User: anonymous   Login
Location: Columbus
(29.5618°N, 96.6770°W)
Time: 02:35:47
(UTC-05:00)
Language:

Cosmos 2056 Rocket - Orbit

View from above orbital plane
View from above orbital plane
View from above satellite
View from above satellite

Ground track
Ground track

The orbit data is extracted from the following two-line orbital elements,

1 20433U 90004B   16178.53657078  .00000024  00000-0  17118-4 0  9997
2 20433  74.0371 289.0316 0040337 146.1086 261.6094 14.35936048384150
Epoch (UTC): 26 June 2016 12:52:39
Eccentricity: 0.0040337
inclination: 74.0371°
perigee height: 743 km
apogee height: 801 km
right ascension of ascending node: 289.0316°
argument of perigee: 146.1086°
revolutions per day: 14.35936048
mean anomaly at epoch: 261.6094°
orbit number at epoch: 38415

The dashed part of the orbit path shows where the satellite is in the earth's shadow,  

DLR